Location: Carella
(45.8167°N, 9.2667°E)
Time: 12:53:36
(UTC+00:00)

SJ-6B - Pass Details

Date: 30 March 2020
Orbit: 509 x 582 km, 97.6° (Epoch: 24 May)

Event Time Altitude Azimuth Distance (km) Brightness Sun altitude
Exits shadow 19:35:11 - 188° (S) 2,088 5.6 -18.4°
Reaches altitude 10° 19:35:45 10° 190° (S) 1,866 5.3 -18.5°
Maximum altitude 19:39:36 42° 262° (W) 834 4.1 -19.1°
Drops below altitude 10° 19:43:32 10° 334° (NNW) 1,907 6.3 -19.7°
Sets 19:45:49 0° 341° (NNW) 2,815 7.2 -20.1°
